Location: Eferding
(48.3167°N, 14.0167°E)
Time: 21:11:44
(UTC+00:00)

Cosmos 1743 Rocket - Pass Details

Date: 12 November 2019
Orbit: 604 x 633 km, 82.6° (Epoch: 09 December)

Event Time Altitude Azimuth Distance (km) Brightness Sun altitude
Rises 16:25:16 0° 350° (N) 2,875 6.9 -9.5°
Reaches altitude 10° 16:27:30 10° 351° (N) 1,968 6.1 -9.8°
Maximum altitude 16:31:52 86° 82° (E) 617 3.5 -10.5°
Drops below altitude 10° 16:36:13 10° 171° (S) 1,964 6.2 -11.2°
Sets 16:38:25 0° 171° (S) 2,868 7.0 -11.6°
